Location: Eurasberg
(48.3353°N, 11.0839°E)
Time: 22:17:00
(UTC+00:00)

Timation 1 Rocket - Visible Passes

Search period start: 18 April 2026 00:00
Search period end: 28 April 2026 00:00
Orbit: 895 x 909 km, 70.0° (Epoch: 18 April)

Date Brightness Start Highest point End Pass type
(mag) Time Alt. Az. Time Alt. Az. Time Alt. Az.
18 Apr 4.6 01:12:04 49° W 01:13:08 55° NW 01:19:04 10° NNE visible
18 Apr 6.4 02:56:23 10° WNW 03:00:04 16° NNW 03:03:46 10° N visible
18 Apr 5.3 23:31:51 36° E 23:31:51 36° E 23:36:23 10° NE visible
19 Apr 5.0 01:14:55 38° W 01:16:19 45° NW 01:22:05 10° NNE visible
19 Apr 6.5 03:00:22 10° WNW 03:03:30 14° NNW 03:06:38 10° N visible
19 Apr 4.9 23:34:40 46° E 23:34:40 46° E 23:39:37 10° NE visible
20 Apr 5.3 01:17:43 30° W 01:19:32 37° NW 01:25:05 10° NNE visible
20 Apr 6.6 03:04:28 10° NW 03:06:58 12° NNW 03:09:28 10° N visible
20 Apr 4.6 23:37:27 60° E 23:37:27 60° E 23:42:48 10° NE visible
21 Apr 5.6 01:20:30 24° W 01:22:48 30° NW 01:28:04 10° NNE visible
21 Apr 6.7 03:08:46 10° NW 03:10:28 11° NNW 03:12:10 10° N visible
21 Apr 6.4 21:57:09 13° ENE 21:57:09 13° ENE 21:58:26 10° ENE visible
21 Apr 4.3 23:40:12 77° ENE 23:40:12 77° ENE 23:45:56 10° NNE visible
22 Apr 5.9 01:23:15 18° W 01:26:06 25° NW 01:31:03 10° NNE visible
22 Apr 6.9 03:13:45 10° NNW 03:14:00 10° NNW 03:14:15 10° NNW visible
22 Apr 6.2 21:59:51 17° E 21:59:51 17° E 22:02:16 10° ENE visible
22 Apr 4.2 23:42:54 82° WNW 23:42:58 82° WNW 23:49:02 10° NNE visible
23 Apr 6.2 01:25:57 14° W 01:29:25 22° NW 01:33:59 10° NNE visible
23 Apr 5.8 22:02:32 22° E 22:02:32 22° E 22:05:48 10° NE visible
23 Apr 4.4 23:45:35 63° W 23:46:05 66° WNW 23:52:06 10° NNE visible
24 Apr 6.4 01:28:43 10° WNW 01:32:48 18° NW 01:36:54 10° N visible
24 Apr 5.5 22:05:09 29° E 22:05:09 29° E 22:09:12 10° NE visible
24 Apr 4.8 23:48:12 47° W 23:49:14 53° NW 23:55:08 10° NNE visible
25 Apr 6.6 01:32:38 10° WNW 01:36:13 16° NNW 01:39:49 10° N visible
25 Apr 5.0 22:07:44 39° E 22:07:44 39° E 22:12:30 10° NE visible
25 Apr 5.2 23:50:46 35° W 23:52:25 43° NW 23:58:09 10° NNE visible
26 Apr 6.7 01:36:38 10° WNW 01:39:39 14° NNW 01:42:40 10° N visible
26 Apr 4.6 22:10:15 51° E 22:10:15 51° E 22:15:44 10° NE visible
26 Apr 5.6 23:53:18 26° W 23:55:39 35° NW 00:01:09 10° NNE visible
27 Apr 6.8 01:40:47 10° NW 01:43:08 12° NNW 01:45:29 10° N visible
27 Apr 6.4 20:29:41 11° E 20:29:41 11° E 20:30:17 10° ENE visible
27 Apr 4.2 22:12:42 66° SE 22:12:56 67° ESE 22:18:54 10° NE visible
